Location: Las Navas
(40.6024°N, 4.3345°W)
Time: 09:13:41
(UTC+00:00)

SL-16 R/B - Pass Details

Date: 03 April 2020
Orbit: 841 x 849 km, 71.0° (Epoch: 29 May)

Event Time Altitude Azimuth Distance (km) Brightness Sun altitude
Rises 19:14:45 0° 213° (SSW) 3,383 5.6 -6.5°
Reaches altitude 10° 19:17:13 10° 217° (SW) 2,452 4.9 -6.9°
Maximum altitude 19:22:46 58° 297° (WNW) 975 3.0 -7.9°
Drops below altitude 10° 19:28:20 10° 16° (NNE) 2,465 4.6 -9.0°
Sets 19:30:50 0° 20° (NNE) 3,404 5.3 -9.4°
